Woodward, OK

8:01 PM CST on February 06, 2016 (GMT -0600)
West Woodward

Weather History for KWWR - May, 2013

Change the Weather History Date:

Saturday, May 25, 2013

  Actual Average (KGAG) Record (KGAG)
Temperature  
Mean Temperature 74 °F -  
Max Temperature 86 °F 80 °F 100 °F (1962)
Min Temperature 62 °F 55 °F 39 °F (2001)
Cooling Degree Days 9    
Growing Degree Days 24 (Base 50)    
Moisture  
Dew Point 60 °F    
Average Humidity 63    
Maximum Humidity 88    
Minimum Humidity 37    
Precipitation  
Precipitation 0.00 in - - ()
Sea Level Pressure  
Sea Level Pressure 30.07 in    
Wind  
Wind Speed 18 mph (South)    
Max Wind Speed 29 mph    
Max Gust Speed 36 mph    
Visibility 10 miles    
Events      
Averages and records for this station are not official NWS values.
T = Trace of Precipitation, MM = Missing Value Source: NWS Daily Summary

Daily Weather History Graph

Daily Weather History Graph

Search for Another Location

Airport or City:

Trip Planner

Search our weather history database for the weather conditions in past years. The results will help you decide how hot, cold, wet, or windy it might be!

Date:

Astronomy

May. 25, 2013 Rise Set
Actual Time 6:24 AM CDT 8:46 PM CDT
Civil Twilight 5:54 AM CDT 9:15 PM CDT
Nautical Twilight 5:18 AM CDT 9:52 PM CDT
Astronomical Twilight 4:38 AM CDT 10:31 PM CDT
Moon 9:36 PM CDT (5/25) 6:52 AM CDT (5/25)
Length of Visible Light 15h 20m
Length of Day
14h 21m
Full, 100% of the Moon is Illuminated
May 25
Full
May 31
Last Quarter
Jun 8
New
Jun 16
First Quarter
Jun 23
Full

Hourly Weather History & Observations

Time (CDT) Temp. Heat Index Dew Point Humidity Pressure Visibility Wind Dir Wind Speed Gust Speed Precip Events Conditions
12:15 AM 71.6 °F - 60.8 °F 69% 30.11 in 10.0 mi South 16.1 mph 20.7 mph N/A   Clear
12:35 AM 71.6 °F - 60.8 °F 69% 30.11 in 10.0 mi South 21.9 mph 27.6 mph N/A   Clear
12:55 AM 69.8 °F - 59.0 °F 68% 30.11 in 10.0 mi South 19.6 mph 26.5 mph N/A   Clear
1:15 AM 68.0 °F - 59.0 °F 73% 30.12 in 10.0 mi South 16.1 mph 24.2 mph N/A   Clear
1:35 AM 68.0 °F - 59.0 °F 73% 30.12 in 10.0 mi South 12.7 mph - N/A   Clear
1:55 AM 68.0 °F - 59.0 °F 73% 30.13 in 10.0 mi South 10.4 mph - N/A   Clear
2:15 AM 68.0 °F - 59.0 °F 73% 30.14 in 10.0 mi South 11.5 mph - N/A   Clear
2:35 AM 66.2 °F - 59.0 °F 78% 30.15 in 10.0 mi SSW 10.4 mph - N/A   Clear
2:55 AM 64.4 °F - 59.0 °F 83% 30.15 in 10.0 mi SSW 9.2 mph - N/A   Clear
3:15 AM 64.4 °F - 59.0 °F 83% 30.16 in 10.0 mi SW 9.2 mph - N/A   Clear
3:35 AM 64.4 °F - 59.0 °F 83% 30.15 in 10.0 mi SSW 8.1 mph - N/A   Clear
3:55 AM 62.6 °F - 57.2 °F 82% 30.15 in 10.0 mi SSW 6.9 mph - N/A   Clear
4:15 AM 62.6 °F - 57.2 °F 82% 30.13 in 10.0 mi South 9.2 mph - N/A   Clear
4:35 AM 62.6 °F - 57.2 °F 82% 30.12 in 10.0 mi SSE 10.4 mph - N/A   Clear
4:55 AM 62.6 °F - 57.2 °F 82% 30.12 in 10.0 mi South 11.5 mph - N/A   Clear
5:15 AM 62.6 °F - 59.0 °F 88% 30.12 in 10.0 mi South 15.0 mph - N/A   Clear
5:35 AM 64.4 °F - 59.0 °F 83% 30.10 in 10.0 mi South 16.1 mph 20.7 mph N/A   Clear
5:55 AM 64.4 °F - 57.2 °F 77% 30.10 in 10.0 mi South 16.1 mph 25.3 mph N/A   Clear
6:15 AM 62.6 °F - 57.2 °F 82% 30.10 in 10.0 mi South 17.3 mph 21.9 mph N/A   Clear
6:35 AM 62.6 °F - 57.2 °F 82% 30.10 in 10.0 mi South 20.7 mph 26.5 mph N/A   Clear
6:55 AM 64.4 °F - 59.0 °F 83% 30.10 in 10.0 mi South 19.6 mph 27.6 mph N/A   Clear
7:15 AM 64.4 °F - 59.0 °F 83% 30.11 in 10.0 mi South 19.6 mph 24.2 mph N/A   Clear
7:35 AM 64.4 °F - 59.0 °F 83% 30.12 in 10.0 mi South 19.6 mph - N/A   Clear
7:55 AM 66.2 °F - 59.0 °F 78% 30.13 in 10.0 mi SSW 17.3 mph 23.0 mph N/A   Clear
8:15 AM 68.0 °F - 59.0 °F 73% 30.13 in 10.0 mi SSW 16.1 mph 23.0 mph N/A   Clear
8:35 AM 69.8 °F - 59.0 °F 68% 30.13 in 10.0 mi SSW 19.6 mph - N/A   Clear
8:55 AM 69.8 °F - 59.0 °F 68% 30.12 in 10.0 mi SSW 17.3 mph 25.3 mph N/A   Clear
9:15 AM 71.6 °F - 60.8 °F 69% 30.12 in 10.0 mi SSW 20.7 mph 27.6 mph N/A   Clear
9:35 AM 73.4 °F - 60.8 °F 65% 30.10 in 10.0 mi South 18.4 mph 25.3 mph N/A   Clear
9:55 AM 73.4 °F - 60.8 °F 65% 30.11 in 10.0 mi SSW 19.6 mph 27.6 mph N/A   Clear
10:15 AM 77.0 °F - 60.8 °F 57% 30.11 in 10.0 mi South 21.9 mph 26.5 mph N/A   Clear
10:35 AM 77.0 °F - 59.0 °F 54% 30.11 in 10.0 mi SSW 23.0 mph 28.8 mph N/A   Clear
10:55 AM 77.0 °F - 59.0 °F 54% 30.10 in 10.0 mi South 24.2 mph 31.1 mph N/A   Scattered Clouds
11:15 AM 78.8 °F - 59.0 °F 51% 30.10 in 10.0 mi South 23.0 mph 32.2 mph N/A   Mostly Cloudy
11:35 AM 80.6 °F 81.1 °F 59.0 °F 48% 30.09 in 10.0 mi South 28.8 mph 35.7 mph N/A   Scattered Clouds
11:55 AM 80.6 °F 81.1 °F 59.0 °F 48% 30.10 in 10.0 mi South 25.3 mph 34.5 mph N/A   Clear
12:15 PM 80.6 °F 81.1 °F 59.0 °F 48% 30.09 in 10.0 mi South 26.5 mph 34.5 mph N/A   Scattered Clouds
12:35 PM 80.6 °F 81.1 °F 59.0 °F 48% 30.09 in 10.0 mi SSW 25.3 mph 31.1 mph N/A   Mostly Cloudy
12:55 PM 80.6 °F 81.1 °F 59.0 °F 48% 30.08 in 10.0 mi SSW 17.3 mph 29.9 mph N/A   Mostly Cloudy
1:15 PM 82.4 °F 82.5 °F 59.0 °F 45% 30.07 in 10.0 mi South 28.8 mph 33.4 mph N/A   Mostly Cloudy
1:35 PM 82.4 °F 82.0 °F 57.2 °F 42% 30.07 in 10.0 mi South 25.3 mph 33.4 mph N/A   Mostly Cloudy
1:55 PM 82.4 °F 82.9 °F 60.8 °F 48% 30.05 in 10.0 mi SSE 24.2 mph 29.9 mph N/A   Mostly Cloudy
2:15 PM 82.4 °F 82.5 °F 59.0 °F 45% 30.05 in 10.0 mi South 20.7 mph 28.8 mph N/A   Mostly Cloudy
2:35 PM 82.4 °F 82.5 °F 59.0 °F 45% 30.05 in 10.0 mi SSE 23.0 mph 33.4 mph N/A   Overcast
2:55 PM 82.4 °F 82.5 °F 59.0 °F 45% 30.04 in 10.0 mi South 21.9 mph 29.9 mph N/A   Mostly Cloudy
3:15 PM 84.2 °F 83.8 °F 59.0 °F 42% 30.04 in 10.0 mi SSE 20.7 mph 25.3 mph N/A   Scattered Clouds
3:35 PM 86.0 °F 85.4 °F 59.0 °F 40% 30.02 in 10.0 mi SSE 20.7 mph 29.9 mph N/A   Clear
3:55 PM 86.0 °F 84.9 °F 57.2 °F 37% 30.02 in 10.0 mi South 21.9 mph 31.1 mph N/A   Scattered Clouds
4:15 PM 86.0 °F 84.9 °F 57.2 °F 37% 30.02 in 10.0 mi South 23.0 mph 29.9 mph N/A   Mostly Cloudy
4:35 PM 84.2 °F 83.8 °F 59.0 °F 42% 30.02 in 10.0 mi SSE 21.9 mph 29.9 mph N/A   Mostly Cloudy
4:55 PM 84.2 °F 83.8 °F 59.0 °F 42% 30.01 in 10.0 mi South 18.4 mph 28.8 mph N/A   Scattered Clouds
5:15 PM 86.0 °F 85.4 °F 59.0 °F 40% 30.01 in 10.0 mi South 23.0 mph 27.6 mph N/A   Scattered Clouds
5:35 PM 84.2 °F 83.8 °F 59.0 °F 42% 30.00 in 10.0 mi SSE 23.0 mph 27.6 mph N/A   Scattered Clouds
5:55 PM 84.2 °F 83.8 °F 59.0 °F 42% 30.00 in 10.0 mi South 18.4 mph 31.1 mph N/A   Scattered Clouds
6:15 PM 84.2 °F 83.8 °F 59.0 °F 42% 29.98 in 10.0 mi South 25.3 mph 32.2 mph N/A   Clear
6:35 PM 82.4 °F 82.5 °F 59.0 °F 45% 29.97 in 10.0 mi SSE 24.2 mph 32.2 mph N/A   Scattered Clouds
6:55 PM 82.4 °F 82.5 °F 59.0 °F 45% 29.97 in 10.0 mi SSE 20.7 mph 28.8 mph N/A   Clear
7:15 PM 80.6 °F 81.5 °F 60.8 °F 51% 29.96 in 10.0 mi SSE 21.9 mph 31.1 mph N/A   Clear
7:35 PM 80.6 °F 81.8 °F 62.6 °F 54% 29.97 in 10.0 mi SSE 19.6 mph 31.1 mph N/A   Clear
7:55 PM 78.8 °F - 62.6 °F 57% 29.97 in 10.0 mi SSE 20.7 mph 27.6 mph N/A   Clear
8:35 PM 77.0 °F - 62.6 °F 61% 29.97 in 10.0 mi SSE 19.6 mph 24.2 mph N/A   Clear
8:55 PM 75.2 °F - 62.6 °F 65% 29.97 in 10.0 mi SSE 19.6 mph 28.8 mph N/A   Clear
9:15 PM 73.4 °F - 62.6 °F 69% 29.98 in 10.0 mi SSE 19.6 mph 27.6 mph N/A   Clear
9:35 PM 73.4 °F - 62.6 °F 69% 29.99 in 10.0 mi SSE 17.3 mph 26.5 mph N/A   Clear
9:55 PM 71.6 °F - 62.6 °F 73% 30.01 in 10.0 mi SSE 19.6 mph 25.3 mph N/A   Clear
10:15 PM 71.6 °F - 62.6 °F 73% 30.00 in 10.0 mi SE 18.4 mph 24.2 mph N/A   Clear
10:35 PM 71.6 °F - 62.6 °F 73% 30.00 in 10.0 mi SSE 18.4 mph - N/A   Clear
10:55 PM 69.8 °F - 62.6 °F 78% 29.99 in 10.0 mi SSE 20.7 mph 24.2 mph N/A   Clear
11:15 PM 69.8 °F - 64.4 °F 83% 29.98 in 10.0 mi SSE 20.7 mph 27.6 mph N/A   Clear
11:35 PM 69.8 °F - 64.4 °F 83% 29.98 in 10.0 mi SSE 20.7 mph 26.5 mph N/A   Clear
11:55 PM 69.8 °F - 64.4 °F 83% 29.97 in 10.0 mi SSE 18.4 mph 26.5 mph N/A   Clear